Nashua, NH

3:55 PM EDT on October 16, 2019 (GMT -0400)
Boire

Weather History for KASH - May, 2019

Change the Weather History Date:

Friday, May 31, 2019

  Actual Average Record
Temperature  
Mean Temperature 65 °F -  
Max Temperature 75 °F 74 °F 93 °F (1987)
Min Temperature 55 °F 51 °F 27 °F (1961)
Growing Degree Days 15 (Base 50)    
Moisture  
Dew Point 56 °F    
Average Humidity 80    
Maximum Humidity 100    
Minimum Humidity 37    
Precipitation  
Precipitation 0.00 in - - ()
Sea Level Pressure  
Sea Level Pressure 29.73 in    
Wind  
Wind Speed 3 mph ()    
Max Wind Speed 14 mph    
Max Gust Speed 20 mph    
Visibility 8.0 miles    
Events Fog    
Averages and records for this station are not official NWS values.
T = Trace of Precipitation, MM = Missing Value Source: Averaged Metar Reports

Daily Weather History Graph

Daily Weather History Graph

Search for Another Location

Airport or City:

Astronomy

May. 31, 2019 Rise Set
Actual Time 5:11 AM EDT 8:16 PM EDT
Civil Twilight 4:36 AM EDT 8:51 PM EDT
Nautical Twilight 3:53 AM EDT 9:34 PM EDT
Astronomical Twilight 3:01 AM EDT 10:27 PM EDT
Moon 3:49 AM EDT (5/31) 5:17 PM EDT (5/31)
Length of Visible Light 16h 14m
Length of Day
15h 05m
Waning Crescent, 9% of the Moon is Illuminated
May 31
Waning Crescent
Jun 3
New
Jun 10
First Quarter
Jun 17
Full
Jun 25
Last Quarter

Hourly Weather History & Observations

Time (EDT) Temp. Dew Point Humidity Pressure Visibility Wind Dir Wind Speed Gust Speed Precip Events Conditions
12:18 AM 60.8 °F 60.8 °F 100% 29.64 in 10.0 mi SE 4.6 mph - N/A   Overcast
12:56 AM 60.1 °F 60.1 °F 100% 29.67 in 10.0 mi Calm Calm - 0.00 in   Overcast
1:56 AM 60.1 °F 60.1 °F 100% 29.65 in 10.0 mi South 3.5 mph - N/A   Overcast
2:49 AM 59.0 °F 59.0 °F 100% 29.60 in 10.0 mi SE 4.6 mph - N/A   Overcast
2:56 AM 60.1 °F 60.1 °F 100% 29.63 in 10.0 mi Calm Calm - N/A   Overcast
3:26 AM 59.0 °F 59.0 °F 100% 29.62 in 10.0 mi Calm Calm - N/A   Overcast
3:56 AM 59.0 °F 59.0 °F 100% 29.65 in 10.0 mi Calm Calm - 0.00 in   Overcast
4:56 AM 59.0 °F 59.0 °F 100% 29.66 in 8.0 mi Calm Calm - N/A   Overcast
5:47 AM 57.2 °F 57.2 °F 100% 29.65 in 1.2 mi Calm Calm - N/A   Partly Cloudy
5:49 AM 57.2 °F 57.2 °F 100% 29.65 in 0.5 mi Calm Calm - N/A Fog Fog
5:56 AM 57.0 °F 57.0 °F 100% 29.68 in 0.2 mi Calm Calm - N/A Fog Fog
6:56 AM 59.0 °F 59.0 °F 100% 29.70 in 0.2 mi Calm Calm - N/A Fog Fog
7:14 AM 60.8 °F 60.8 °F 100% 29.68 in 0.8 mi Calm Calm - N/A   Overcast
7:16 AM 60.8 °F 60.8 °F 100% 29.68 in 1.2 mi Calm Calm - N/A   Mostly Cloudy
7:20 AM 60.8 °F 60.8 °F 100% 29.68 in 3.0 mi Calm Calm - N/A   Mostly Cloudy
7:56 AM 62.1 °F 62.1 °F 100% 29.72 in 10.0 mi WNW 4.6 mph - N/A   Clear
8:56 AM 68.0 °F 60.1 °F 76% 29.74 in 10.0 mi NNW 13.8 mph - N/A   Partly Cloudy
9:56 AM 68.0 °F 57.9 °F 70% 29.76 in 10.0 mi NW 8.1 mph - N/A   Overcast
10:17 AM 68.0 °F 57.2 °F 68% 29.74 in 10.0 mi NW 10.4 mph - N/A   Overcast
10:56 AM 69.1 °F 57.0 °F 65% 29.79 in 10.0 mi NNW 5.8 mph - N/A   Overcast
11:56 AM 70.0 °F 55.0 °F 59% 29.80 in 10.0 mi NW 9.2 mph - N/A   Mostly Cloudy
12:56 PM 73.0 °F 51.1 °F 46% 29.79 in 10.0 mi Variable 5.8 mph - N/A   Mostly Cloudy
1:56 PM 73.9 °F 46.9 °F 38% 29.78 in 10.0 mi NW 10.4 mph 18.4 mph N/A   Scattered Clouds
2:56 PM 75.0 °F 48.0 °F 38% 29.78 in 10.0 mi West 5.8 mph 18.4 mph N/A   Scattered Clouds
3:56 PM 75.0 °F 46.9 °F 37% 29.77 in 10.0 mi WNW 8.1 mph 19.6 mph N/A   Scattered Clouds
4:56 PM 73.9 °F 48.0 °F 40% 29.78 in 10.0 mi NNW 6.9 mph - N/A   Scattered Clouds
5:56 PM 75.0 °F 48.9 °F 40% 29.77 in 10.0 mi Variable 3.5 mph - N/A   Scattered Clouds
6:56 PM 69.1 °F 54.0 °F 58% 29.79 in 10.0 mi SE 6.9 mph - N/A   Partly Cloudy
7:56 PM 66.0 °F 53.1 °F 63% 29.81 in 10.0 mi SSE 4.6 mph - N/A   Partly Cloudy
8:56 PM 63.0 °F 52.0 °F 67% 29.82 in 10.0 mi SE 4.6 mph - N/A   Clear
9:56 PM 57.9 °F 53.1 °F 84% 29.84 in 10.0 mi Calm Calm - N/A   Clear
10:56 PM 55.9 °F 53.1 °F 90% 29.84 in 10.0 mi Calm Calm - N/A   Clear
11:56 PM 55.9 °F 54.0 °F 93% 29.84 in 10.0 mi Calm Calm - N/A   Overcast